KP4FJC Weather Reports


time (UTC)temp
F
wind
direction
speed
knots
gust
knots
rain 1hr
in
rain 24hr
in
rain mn
in
humidity
%
barometer
mb
20260505102108 74 328 0.0 0.0 0.00 0.00 0.00 92 1017.6
20260505101607 74 308 0.9 1.7 0.00 0.00 0.00 93 1017.6
20260505101103 74 306 0.9 0.9 0.00 0.00 0.00 93 1017.4
20260505100559 74 204 0.9 0.9 0.00 0.00 0.00 93 1017.3
20260505100056 74 233 0.9 1.7 0.00 0.00 0.00 93 1017.5
20260505095552 74 294 0.9 0.9 0.00 0.00 0.00 93 1017.2
20260505095049 74 323 0.9 0.9 0.00 0.00 0.00 93 1017.3
20260505094546 74 335 0.0 0.0 0.00 0.00 0.00 93 1017.6
20260505094042 74 327 0.9 0.9 0.00 0.00 0.00 93 1017.3
20260505093538 74 333 0.0 0.9 0.00 0.00 0.00 93 1017.3
20260505093036 75 7 0.0 0.0 0.00 0.00 0.00 93 1017.3
20260505092533 75 7 0.0 0.0 0.00 0.00 0.00 93 1017.3
20260505092032 74 7 0.0 0.0 0.00 0.00 0.00 93 1017.4
20260505091528 74 7 0.0 0.0 0.00 0.00 0.00 93 1017.3
20260505091027 74 7 0.0 0.0 0.00 0.00 0.00 93 1017.2
20260505090524 74 308 0.0 0.0 0.00 0.00 0.00 93 1017.1
20260505090022 74 308 0.0 0.0 0.00 0.00 0.00 93 1017.2
20260505085519 74 308 0.0 0.0 0.00 0.00 0.00 93 1017.3
20260505085017 74 307 0.9 0.9 0.00 0.00 0.00 93 1017.2
20260505084515 74 327 0.9 0.9 0.00 0.00 0.00 93 1017.2
20260505084013 74 311 0.9 0.9 0.00 0.00 0.00 93 1017.3
20260505083510 74 297 0.9 0.9 0.00 0.00 0.00 93 1017.0
20260505083006 74 221 1.7 1.7 0.00 0.00 0.00 92 1017.0
20260505082502 75 305 0.9 0.9 0.00 0.00 0.00 92 1017.1
20260505081959 75 329 0.0 0.0 0.00 0.00 0.00 92 1016.9
20260505081455 75 329 0.0 0.0 0.00 0.00 0.00 92 1016.8
20260505080952 75 328 0.0 0.0 0.00 0.00 0.00 91 1016.9
20260505080449 75 328 0.0 0.9 0.00 0.00 0.00 91 1016.8
20260505075944 75 328 0.9 0.9 0.00 0.00 0.00 91 1016.9
20260505075441 75 329 0.0 0.9 0.00 0.00 0.00 91 1016.9
20260505074938 75 329 0.0 0.0 0.00 0.00 0.00 91 1016.7
20260505074436 75 328 0.0 0.0 0.00 0.00 0.00 91 1016.7
20260505073933 75 307 0.9 1.7 0.00 0.00 0.00 91 1016.9
20260505073430 75 295 1.7 1.7 0.00 0.00 0.00 90 1016.9
20260505072927 76 302 1.7 1.7 0.00 0.00 0.00 89 1016.8
20260505072423 76 319 0.0 0.9 0.00 0.00 0.00 90 1016.8
20260505071920 76 322 0.0 0.0 0.00 0.00 0.00 90 1016.9
20260505071415 76 322 0.0 0.0 0.00 0.00 0.00 90 1016.8
20260505070914 76 322 0.0 0.0 0.00 0.00 0.00 90 1016.9
20260505070410 76 321 0.0 0.0 0.00 0.00 0.00 90 1016.7
20260505065906 76 305 0.9 1.7 0.00 0.00 0.00 90 1017.0
20260505065403 76 356 0.0 0.9 0.00 0.00 0.00 90 1016.8
20260505064900 75 358 0.0 0.9 0.00 0.00 0.00 90 1016.9
20260505064357 75 332 0.0 0.0 0.00 0.00 0.00 90 1017.0
20260505063855 75 332 0.0 0.0 0.00 0.00 0.00 91 1016.9
20260505063356 75 331 0.0 0.0 0.00 0.00 0.00 91 1016.9
20260505062853 75 331 0.0 0.9 0.00 0.00 0.00 91 1016.9
20260505062350 76 250 1.7 1.7 0.00 0.00 0.00 90 1017.0
20260505061847 76 262 1.7 1.7 0.00 0.00 0.00 89 1017.0
20260505061345 77 272 1.7 1.7 0.00 0.00 0.00 88 1017.1
20260505060842 77 319 0.9 0.9 0.00 0.00 0.00 88 1017.1
20260505060339 77 323 0.0 0.9 0.00 0.00 0.00 88 1017.1
20260505055835 77 323 0.0 0.0 0.00 0.00 0.00 88 1017.3
20260505055331 77 323 0.0 0.0 0.00 0.00 0.00 88 1017.3
20260505054828 77 324 0.0 0.0 0.00 0.00 0.00 88 1017.2
20260505054326 77 324 0.0 0.0 0.00 0.00 0.00 88 1017.3
20260505053824 77 322 0.0 0.9 0.00 0.00 0.00 88 1017.3
20260505053320 77 315 0.0 0.0 0.00 0.00 0.00 88 1017.4
20260505052817 77 306 0.9 0.9 0.00 0.00 0.00 88 1017.2
20260505052314 77 205 0.9 0.9 0.00 0.00 0.00 88 1017.5
20260505051811 77 258 0.9 0.9 0.00 0.00 0.00 88 1017.6
20260505051309 77 271 0.9 0.9 0.00 0.00 0.00 88 1017.5
20260505050807 77 214 0.9 1.7 0.00 0.00 0.00 87 1017.6
20260505050305 77 259 1.7 1.7 0.00 0.00 0.00 87 1017.7
20260505041735 77 245 1.7 1.7 0.00 0.00 0.00 87 1018.0
20260505041232 77 240 0.9 0.9 0.00 0.00 0.00 87 1018.3
20260505040729 78 249 0.9 1.7 0.00 0.00 0.00 86 1018.1
20260505040226 78 232 1.7 1.7 0.00 0.00 0.00 87 1018.4
20260505035723 78 218 1.7 1.7 0.00 0.00 0.00 86 1018.3
20260505035219 78 176 0.9 1.7 0.00 0.00 0.00 86 1018.2
20260505034716 78 206 1.7 1.7 0.00 0.00 0.00 86 1018.3
20260505034213 78 222 2.6 2.6 0.00 0.00 0.00 86 1018.5
20260505033709 78 208 1.7 1.7 0.00 0.00 0.00 86 1018.5
20260505033208 78 166 0.9 0.9 0.00 0.00 0.00 86 1018.7
20260505032705 78 325 0.9 0.9 0.00 0.00 0.00 86 1018.8
20260505032201 79 337 0.9 0.9 0.00 0.00 0.00 86 1018.6
20260505031658 79 40 0.0 0.9 0.00 0.00 0.00 86 1018.6
20260505031155 79 102 0.9 0.9 0.00 0.00 0.00 86 1018.4
20260505030652 79 70 0.9 0.9 0.00 0.00 0.00 86 1018.7
20260505030147 80 94 0.9 0.9 0.00 0.00 0.00 85 1018.5
20260505025644 80 76 1.7 1.7 0.00 0.00 0.00 85 1018.5
20260505025142 80 59 0.9 0.9 0.00 0.00 0.00 85 1018.5
20260505024639 80 190 0.9 1.7 0.00 0.00 0.00 85 1018.5
20260505024136 80 135 0.9 1.7 0.00 0.00 0.00 85 1018.5
20260505023634 80 79 0.9 1.7 0.00 0.00 0.00 84 1018.6
20260505023131 80 121 1.7 2.6 0.00 0.00 0.00 84 1018.7
20260505022628 80 149 0.9 0.9 0.00 0.00 0.00 84 1018.6
20260505022125 80 71 0.9 0.9 0.00 0.00 0.00 83 1018.6
20260505021622 80 30 0.9 1.7 0.00 0.00 0.00 83 1018.5
20260505021119 80 62 1.7 1.7 0.00 0.00 0.00 82 1018.5
20260505020614 81 34 0.9 0.9 0.00 0.00 0.00 82 1018.3
20260505020111 81 103 0.9 0.9 0.00 0.00 0.00 82 1018.4
20260505015608 81 91 1.7 2.6 0.00 0.00 0.00 81 1018.5
20260505015105 81 52 0.9 1.7 0.00 0.00 0.00 81 1018.4
20260505014601 81 71 0.9 0.9 0.00 0.00 0.00 81 1018.1
20260505014058 81 31 0.9 1.7 0.00 0.00 0.00 80 1018.2
20260505013555 81 29 0.0 0.9 0.00 0.00 0.00 80 1018.2
20260505013053 81 72 2.6 2.6 0.00 0.00 0.00 80 1018.1
20260505012551 81 37 2.6 2.6 0.00 0.00 0.00 79 1018.1
20260505012048 81 132 1.7 2.6 0.00 0.00 0.00 79 1018.1
20260505011543 81 68 0.9 1.7 0.00 0.00 0.00 78 1018.0
20260505011041 81 50 0.0 0.9 0.00 0.00 0.00 78 1017.9
20260505010536 81 105 2.6 4.3 0.00 0.00 0.00 78 1017.9
20260505010033 81 115 1.7 1.7 0.00 0.00 0.00 78 1017.7
20260505005529 81 105 2.6 4.3 0.00 0.00 0.00 78 1017.6
20260505005027 81 126 1.7 1.7 0.00 0.00 0.00 78 1017.5
20260505004523 81 99 1.7 1.7 0.00 0.00 0.00 78 1017.6
20260505004020 82 106 1.7 1.7 0.00 0.00 0.00 77 1017.5
20260505003517 82 57 2.6 4.3 0.00 0.00 0.00 77 1017.5
20260505003014 82 36 0.9 0.9 0.00 0.00 0.00 77 1017.4
20260505002509 82 74 0.9 1.7 0.00 0.00 0.00 76 1017.4
20260505002009 82 74 1.7 2.6 0.00 0.00 0.00 76 1017.6
20260505001506 82 25 0.0 0.9 0.00 0.00 0.00 76 1017.4
20260505001003 82 62 2.6 2.6 0.00 0.00 0.00 75 1017.4
20260505000500 82 153 0.9 1.7 0.00 0.00 0.00 75 1017.3
20260504235957 82 54 0.9 0.9 0.00 0.00 0.00 75 1017.2
20260504235454 82 50 0.0 0.9 0.00 0.00 0.00 75 1017.2
20260504234950 82 112 2.6 2.6 0.00 0.00 0.00 75 1017.2
20260504234448 83 61 0.9 0.9 0.00 0.00 0.00 75 1017.1
20260504233944 83 97 1.7 1.7 0.00 0.00 0.00 75 1017.3
20260504233440 83 20 0.9 1.7 0.00 0.00 0.00 75 1017.0
20260504232937 83 98 1.7 1.7 0.00 0.00 0.00 75 1017.5
20260504232434 83 60 3.5 4.3 0.00 0.00 0.00 75 1017.2
20260504231931 83 135 2.6 4.3 0.00 0.00 0.00 74 1017.3
20260504231427 83 95 2.6 2.6 0.00 0.00 0.00 74 1017.1
20260504230924 84 192 2.6 4.3 0.00 0.00 0.00 74 1017.0
20260504230421 84 157 2.6 6.1 0.00 0.00 0.00 73 1016.7
20260504225920 84 113 4.3 5.2 0.00 0.00 0.00 73 1016.8
20260504225416 84 126 5.2 7.8 0.00 0.00 0.00 73 1016.9
20260504224914 84 82 4.3 5.2 0.00 0.00 0.00 72 1016.4
20260504224410 84 79 0.9 1.7 0.00 0.00 0.00 71 1016.9
20260504223907 85 45 0.0 0.9 0.00 0.00 0.00 70 1016.6
20260504223403 85 180 2.6 2.6 0.00 0.00 0.00 69 1016.6
20260504222859 85 345 1.7 2.6 0.00 0.00 0.00 69 1016.4
20260504222356 85 112 3.5 5.2 0.00 0.00 0.00 69 1016.2
20260504221855 86 348 0.0 0.9 0.00 0.00 0.00 67 1016.2
20260504221351 86 108 3.5 5.2 0.00 0.00 0.00 67 1016.2
20260504220848 86 93 3.5 5.2 0.00 0.00 0.00 67 1016.0
20260504220345 86 84 2.6 2.6 0.00 0.00 0.00 67 1016.2
20260504215842 86 127 5.2 6.1 0.00 0.00 0.00 67 1016.0
20260504215338 86 164 3.5 5.2 0.00 0.00 0.00 66 1015.9
20260504214834 87 177 2.6 5.2 0.00 0.00 0.00 65 1015.5
20260504214331 87 129 7.0 9.6 0.00 0.00 0.00 65 1015.6
20260504213828 87 131 2.6 4.3 0.00 0.00 0.00 65 1015.6
20260504213324 88 105 2.6 2.6 0.00 0.00 0.00 64 1015.5
20260504212822 87 75 2.6 5.2 0.00 0.00 0.00 65 1015.4
20260504212317 87 52 2.6 4.3 0.00 0.00 0.00 64 1015.3
20260504211815 87 60 4.3 6.1 0.00 0.00 0.00 65 1015.5
20260504211311 87 131 4.3 7.0 0.00 0.00 0.00 64 1015.4
20260504210809 88 139 7.8 12.2 0.00 0.00 0.00 64 1015.6
20260504210306 88 66 1.7 2.6 0.00 0.00 0.00 62 1015.7
20260504205803 88 120 5.2 7.0 0.00 0.00 0.00 62 1015.4
20260504205301 89 134 4.3 6.1 0.00 0.00 0.00 61 1015.2
20260504204759 88 170 4.3 5.2 0.00 0.00 0.00 63 1015.2
20260504204256 89 92 4.3 7.0 0.00 0.00 0.00 63 1015.1
20260504203756 89 55 4.3 6.1 0.00 0.00 0.00 63 1015.1
20260504203252 89 175 3.5 4.3 0.00 0.00 0.00 63 1014.8
20260504202747 88 19 2.6 4.3 0.00 0.00 0.00 65 1015.0
20260504202245 89 76 3.5 6.1 0.00 0.00 0.00 65 1014.9
20260504201741 89 175 4.3 6.1 0.00 0.00 0.00 65 1014.9
20260504201239 88 29 0.9 1.7 0.00 0.00 0.00 65 1015.1
20260504200737 89 100 6.1 7.0 0.00 0.00 0.00 65 1015.0
20260504200232 90 46 3.5 4.3 0.00 0.00 0.00 63 1015.1
20260504195729 89 38 0.9 1.7 0.00 0.00 0.00 64 1015.2
20260504195225 89 176 2.6 2.6 0.00 0.00 0.00 64 1015.4
20260504194722 89 44 5.2 6.1 0.00 0.00 0.00 64 1015.1
20260504194218 89 113 6.1 7.8 0.00 0.00 0.00 63 1015.2
20260504193715 89 57 7.0 8.7 0.00 0.00 0.00 62 1015.4
20260504193212 89 33 5.2 7.0 0.00 0.00 0.00 62 1015.4
20260504192710 90 115 7.0 7.8 0.00 0.00 0.00 62 1015.1
20260504192208 89 96 3.5 5.2 0.00 0.00 0.00 64 1015.4
20260504191706 90 82 4.3 6.1 0.00 0.00 0.00 62 1015.5
20260504191203 90 184 4.3 5.2 0.00 0.00 0.00 60 1015.2
20260504190658 90 118 3.5 5.2 0.00 0.00 0.00 60 1015.6
20260504190154 90 83 8.7 11.3 0.00 0.00 0.00 60 1015.3
20260504185651 91 118 7.0 9.6 0.00 0.00 0.00 59 1015.7
20260504185147 90 68 1.7 1.7 0.00 0.00 0.00 59 1015.6
20260504184644 91 44 0.9 1.7 0.00 0.00 0.00 59 1015.6
20260504184133 91 68 6.1 8.7 0.00 0.00 0.00 55 1015.6
20260504183631 92 125 2.6 4.3 0.00 0.00 0.00 54 1015.8
20260504183128 91 188 3.5 6.1 0.00 0.00 0.00 55 1015.7
20260504182626 92 293 2.6 4.3 0.00 0.00 0.00 54 1015.8
20260504182123 91 224 8.7 9.6 0.00 0.00 0.00 54 1016.0
20260504181620 91 197 6.1 7.8 0.00 0.00 0.00 55 1015.9
20260504181118 91 156 2.6 4.3 0.00 0.00 0.00 55 1015.9
20260504180617 90 67 4.3 7.8 0.00 0.00 0.00 54 1016.0
20260504180115 90 67 4.3 6.1 0.00 0.00 0.00 55 1016.2
20260504175612 91 149 3.5 6.1 0.00 0.00 0.00 54 1016.2
20260504175109 92 169 2.6 2.6 0.00 0.00 0.00 53 1016.1
20260504174607 91 135 2.6 4.3 0.00 0.00 0.00 55 1016.3
20260504174103 91 137 3.5 5.2 0.00 0.00 0.00 55 1016.1
20260504173600 91 117 4.3 6.1 0.00 0.00 0.00 58 1016.4
20260504173058 92 100 4.3 5.2 0.00 0.00 0.00 55 1016.5
20260504172554 90 349 3.5 4.3 0.00 0.00 0.00 57 1016.6
20260504172050 91 6 3.5 5.2 0.00 0.00 0.00 57 1016.6
20260504171547 89 96 3.5 5.2 0.00 0.00 0.00 57 1016.6
20260504171044 90 271 2.6 2.6 0.00 0.00 0.00 54 1016.9
20260504170540 90 140 2.6 2.6 0.00 0.00 0.00 55 1016.8
20260504150918 88 184 1.7 2.6 0.00 0.00 0.00 62 1017.8
20260504150415 88 44 1.7 2.6 0.00 0.00 0.00 61 1018.0
20260504140841 86 232 7.0 7.8 0.00 0.00 0.00 68 1018.0
20260504140337 86 70 4.3 7.8 0.00 0.00 0.00 68 1018.1
20260504130806 83 103 2.6 4.3 0.00 0.00 0.00 74 1018.3
20260504130302 84 133 4.3 5.2 0.00 0.00 0.00 74 1018.1
20260504120226 82 103 2.6 5.2 0.00 0.00 0.00 78 1018.5
20260504110653 79 47 0.0 0.9 0.00 0.00 0.00 84 1018.4
20260504110149 80 39 0.9 0.9 0.00 0.00 0.00 83 1018.2